Location: *
(42.0175°N, 9.4056°E)
Time: 15:09:57
(UTC+00:00)

Cosmos 1733 Rocket - Pass Details

Date: 25 August 2019
Orbit: 604 x 628 km, 82.5° (Epoch: 23 October)

Event Time Altitude Azimuth Distance (km) Brightness Sun altitude
Rises 19:12:36 0° 186° (S) 2,842 6.3 -12.0°
Reaches altitude 10° 19:14:47 10° 187° (S) 1,944 5.4 -12.4°
Maximum altitude 19:19:05 90° 266° (W) 611 3.0 -13.1°
Drops below altitude 10° 19:23:26 10° 8° (N) 1,963 5.9 -13.8°
Sets 19:25:40 0° 8° (N) 2,874 6.8 -14.2°
